logo
Search for airport 
image banner adimage banner adimage banner ad
image banner ad

EHJC - K2B-A (Oil Platform)

Located in , Netherlands

ICAO - , IATA -

Data provided by Airmate  

General information

Coordinates: N53°56'55" E3°39'44"
Elevation is feet MSL.
 
View others Airports in Noord-Holland

Operational data

Special qualification required
Current time UTC:
Current local time:
Weather at : EHJA - J6-A (Oil Platform) ( 49 km )
METAR: EHJA 171455Z AUTO 23013KT 9999 NSC 14/11 Q1010
View NOTAMs / SUP AIP / TFR affecting this airport [VIEW]
Communications frequencies: [VIEW]

Runways:

Airport contact information

Address: Netherlands

Satellite view of EHJC